JST523 YSSY-YMML

Flight info

Callsign JST523
Flight time 1h 6m
Altitude 36000
Route MARUB7/34R WOL H65 LEECE Q29 ML
Aircraft A320/M-SDE3FGHIRWY/LB1

Departure

Time 2026-04-30 08:55
Airport Sydney Kingsford Smith International Airport (YSSY)

Arrival

Time 2026-04-30 10:01
Airport Melbourne Airport (YMML)
Time Latitude Longitude Altitude Speed Heading
2026-04-30 07:51 -33.93463 151.17685 28 ft 0 kts 100°
2026-04-30 08:35 -33.93462 151.17685 3 ft 1 kts 100°
2026-04-30 08:35 -33.93460 151.17666 30 ft 2 kts 100°
2026-04-30 08:35 -33.93457 151.17647 30 ft 2 kts 101°
2026-04-30 08:35 -33.93453 151.17627 30 ft 2 kts 102°
2026-04-30 08:36 -33.93450 151.17608 30 ft 2 kts 108°
2026-04-30 08:36 -33.93442 151.17590 30 ft 2 kts 176°
2026-04-30 08:36 -33.93440 151.17589 29 ft 0 kts 189°
2026-04-30 08:44 -33.93443 151.17589 29 ft 5 kts 188°
2026-04-30 08:45 -33.93557 151.17602 27 ft 21 kts 167°
2026-04-30 08:45 -33.93690 151.17664 27 ft 22 kts 153°
2026-04-30 08:45 -33.93841 151.17710 19 ft 20 kts 168°
2026-04-30 08:45 -33.93961 151.17772 24 ft 18 kts 154°
2026-04-30 08:46 -33.94085 151.17818 23 ft 20 kts 166°
2026-04-30 08:46 -33.94219 151.17860 24 ft 20 kts 166°
2026-04-30 08:46 -33.94351 151.17895 25 ft 19 kts 168°
2026-04-30 08:46 -33.94435 151.17917 24 ft 13 kts 168°
2026-04-30 08:47 -33.94529 151.17891 23 ft 16 kts 187°
2026-04-30 08:47 -33.94634 151.17909 23 ft 16 kts 167°
2026-04-30 08:47 -33.94757 151.17942 22 ft 20 kts 167°
2026-04-30 08:47 -33.94885 151.17977 21 ft 12 kts 167°
2026-04-30 08:48 -33.94969 151.18000 24 ft 13 kts 167°
2026-04-30 08:48 -33.95057 151.18022 26 ft 13 kts 165°
2026-04-30 08:48 -33.95102 151.18108 27 ft 15 kts 82°
2026-04-30 08:48 -33.95078 151.18250 25 ft 19 kts 79°
2026-04-30 08:49 -33.95051 151.18402 28 ft 16 kts 79°
2026-04-30 08:49 -33.95081 151.18511 27 ft 15 kts 162°
2026-04-30 08:49 -33.95166 151.18598 30 ft 18 kts 139°
2026-04-30 08:49 -33.95272 151.18700 28 ft 21 kts 151°
2026-04-30 08:50 -33.95417 151.18748 23 ft 17 kts 166°
2026-04-30 08:50 -33.95542 151.18781 23 ft 20 kts 168°
2026-04-30 08:50 -33.95680 151.18816 27 ft 21 kts 168°
2026-04-30 08:50 -33.95831 151.18855 26 ft 23 kts 168°
2026-04-30 08:51 -33.95988 151.18894 27 ft 14 kts 167°
2026-04-30 08:51 -33.96100 151.18925 28 ft 18 kts 167°
2026-04-30 08:51 -33.96235 151.18960 26 ft 21 kts 168°
2026-04-30 08:51 -33.96387 151.18999 23 ft 25 kts 168°
2026-04-30 08:52 -33.96459 151.19018 21 ft 8 kts 168°
2026-04-30 08:52 -33.96530 151.19037 20 ft 12 kts 168°
2026-04-30 08:52 -33.96653 151.19071 19 ft 26 kts 166°
2026-04-30 08:52 -33.96855 151.19081 21 ft 29 kts 178°
2026-04-30 08:53 -33.97033 151.19122 22 ft 18 kts 167°
2026-04-30 08:53 -33.97127 151.19183 21 ft 15 kts 105°
2026-04-30 08:53 -33.97120 151.19270 23 ft 0 kts 77°
2026-04-30 08:53 -33.97119 151.19274 22 ft 5 kts 77°
2026-04-30 08:54 -33.97046 151.19383 21 ft 30 kts 14°
2026-04-30 08:54 -33.96714 151.19290 17 ft 81 kts 349°
2026-04-30 08:54 -33.95886 151.19082 30 ft 158 kts 348°
2026-04-30 08:54 -33.94684 151.18767 495 ft 187 kts 352°
2026-04-30 08:55 -33.93404 151.18829 1526 ft 183 kts 24°
2026-04-30 08:55 -33.92463 151.19742 2433 ft 172 kts 60°
2026-04-30 08:55 -33.92270 151.21177 3008 ft 185 kts 97°
2026-04-30 08:55 -33.92744 151.22735 3398 ft 210 kts 110°
2026-04-30 08:56 -33.93357 151.24385 4059 ft 219 kts 111°
2026-04-30 08:56 -33.93977 151.26051 4998 ft 216 kts 112°
2026-04-30 08:56 -33.94758 151.27551 6000 ft 214 kts 131°
2026-04-30 08:56 -33.96083 151.28554 6426 ft 242 kts 165°
2026-04-30 08:57 -33.97845 151.28480 6858 ft 272 kts 199°
2026-04-30 08:57 -33.99528 151.27335 7535 ft 284 kts 213°
2026-04-30 08:57 -34.01169 151.25966 8351 ft 290 kts 214°
2026-04-30 08:57 -34.02817 151.24517 9206 ft 295 kts 216°
2026-04-30 08:58 -34.04458 151.23064 10063 ft 299 kts 216°
2026-04-30 08:58 -34.06184 151.21546 10600 ft 315 kts 216°
2026-04-30 08:58 -34.08023 151.19947 10928 ft 335 kts 215°
2026-04-30 08:58 -34.09949 151.18293 11543 ft 343 kts 215°
2026-04-30 08:59 -34.11902 151.16625 12286 ft 346 kts 215°
2026-04-30 08:59 -34.13883 151.14942 13065 ft 348 kts 215°
2026-04-30 08:59 -34.15874 151.13255 13849 ft 351 kts 216°
2026-04-30 08:59 -34.17880 151.11556 14582 ft 354 kts 216°
2026-04-30 09:00 -34.19904 151.09839 15225 ft 357 kts 216°
2026-04-30 09:00 -34.21944 151.08104 15880 ft 360 kts 215°
2026-04-30 09:00 -34.24004 151.06350 16516 ft 364 kts 215°
2026-04-30 09:00 -34.26083 151.04579 17163 ft 367 kts 214°
2026-04-30 09:01 -34.28183 151.02792 17813 ft 370 kts 214°
2026-04-30 09:01 -34.30296 151.00991 18458 ft 374 kts 215°
2026-04-30 09:01 -34.32428 150.99169 19071 ft 377 kts 215°
2026-04-30 09:01 -34.34576 150.97327 19655 ft 380 kts 215°
2026-04-30 09:02 -34.38925 150.93602 20855 ft 386 kts 215°
2026-04-30 09:02 -34.41115 150.91717 21431 ft 389 kts 214°
2026-04-30 09:02 -34.43331 150.89813 22002 ft 392 kts 214°
2026-04-30 09:03 -34.45565 150.87901 22562 ft 395 kts 214°
2026-04-30 09:03 -34.47816 150.85970 23128 ft 398 kts 214°
2026-04-30 09:03 -34.50083 150.84021 23683 ft 401 kts 215°
2026-04-30 09:03 -34.52369 150.82055 24188 ft 405 kts 215°
2026-04-30 09:04 -34.54647 150.80028 24653 ft 408 kts 219°
2026-04-30 09:04 -34.56670 150.77598 25115 ft 411 kts 230°
2026-04-30 09:04 -34.58386 150.74818 25576 ft 413 kts 233°
2026-04-30 09:04 -34.60082 150.71988 26050 ft 415 kts 233°
2026-04-30 09:05 -34.61789 150.69153 26506 ft 417 kts 233°
2026-04-30 09:05 -34.63509 150.66303 26942 ft 419 kts 232°
2026-04-30 09:05 -34.65214 150.63479 27372 ft 422 kts 233°
2026-04-30 09:05 -34.66951 150.60597 27795 ft 424 kts 233°
2026-04-30 09:06 -34.68695 150.57699 28198 ft 426 kts 232°
2026-04-30 09:06 -34.70448 150.54787 28615 ft 428 kts 232°
2026-04-30 09:06 -34.72207 150.51856 29031 ft 430 kts 232°
2026-04-30 09:06 -34.73971 150.48908 29438 ft 433 kts 233°
2026-04-30 09:07 -34.75742 150.45942 29844 ft 435 kts 233°
2026-04-30 09:07 -34.77525 150.42958 30235 ft 438 kts 233°
2026-04-30 09:07 -34.79346 150.39913 30618 ft 440 kts 233°
2026-04-30 09:07 -34.81130 150.36940 30955 ft 442 kts 233°
2026-04-30 09:08 -34.82947 150.33907 31280 ft 444 kts 233°
2026-04-30 09:08 -34.84769 150.30859 31614 ft 446 kts 233°
2026-04-30 09:08 -34.86595 150.27800 31948 ft 448 kts 233°
2026-04-30 09:08 -34.88423 150.24727 32362 ft 448 kts 233°
2026-04-30 09:09 -34.90246 150.21654 32838 ft 446 kts 233°
2026-04-30 09:09 -34.92057 150.18599 33314 ft 444 kts 233°
2026-04-30 09:09 -34.93868 150.15548 33793 ft 443 kts 233°
2026-04-30 09:09 -34.95674 150.12507 34275 ft 442 kts 233°
2026-04-30 09:10 -34.97473 150.09481 34693 ft 441 kts 233°
2026-04-30 09:10 -34.99269 150.06454 35114 ft 439 kts 233°
2026-04-30 09:10 -35.01053 150.03444 35533 ft 437 kts 234°
2026-04-30 09:10 -35.02826 150.00449 35947 ft 434 kts 234°
2026-04-30 09:11 -35.04588 149.97464 36329 ft 433 kts 234°
2026-04-30 09:11 -35.06345 149.94485 36427 ft 430 kts 234°
2026-04-30 09:11 -35.09821 149.88594 36441 ft 426 kts 234°
2026-04-30 09:12 -35.13273 149.82725 36439 ft 425 kts 234°
2026-04-30 09:12 -35.16718 149.76852 36439 ft 425 kts 234°
2026-04-30 09:13 -35.20161 149.70979 36442 ft 425 kts 234°
2026-04-30 09:13 -35.23609 149.65099 36442 ft 425 kts 234°
2026-04-30 09:14 -35.27053 149.59220 36446 ft 425 kts 235°
2026-04-30 09:14 -35.30497 149.53320 36452 ft 426 kts 235°
2026-04-30 09:15 -35.33929 149.47422 36456 ft 425 kts 235°
2026-04-30 09:15 -35.37367 149.41514 36456 ft 425 kts 235°
2026-04-30 09:16 -35.40794 149.35614 36451 ft 425 kts 235°
2026-04-30 09:16 -35.44220 149.29706 36456 ft 425 kts 235°
2026-04-30 09:17 -35.47643 149.23797 36453 ft 425 kts 235°
2026-04-30 09:17 -35.51055 149.17891 36453 ft 424 kts 235°
2026-04-30 09:18 -35.54466 149.11975 36456 ft 424 kts 235°
2026-04-30 09:18 -35.57879 149.06056 36467 ft 424 kts 235°
2026-04-30 09:19 -35.61280 149.00144 36469 ft 424 kts 236°
2026-04-30 09:19 -35.64676 148.94228 36469 ft 423 kts 236°
2026-04-30 09:20 -35.68036 148.88343 36476 ft 423 kts 236°
2026-04-30 09:20 -35.71419 148.82418 36483 ft 423 kts 236°
2026-04-30 09:21 -35.74256 148.77457 36488 ft 423 kts 236°
2026-04-30 09:21 -35.77615 148.71576 36483 ft 423 kts 236°
2026-04-30 09:22 -35.80999 148.65654 36482 ft 422 kts 236°
2026-04-30 09:22 -35.84367 148.59718 36479 ft 422 kts 236°
2026-04-30 09:23 -35.87725 148.53775 36486 ft 422 kts 236°
2026-04-30 09:23 -35.91082 148.47835 36484 ft 422 kts 236°
2026-04-30 09:24 -35.94436 148.41883 36476 ft 422 kts 237°
2026-04-30 09:24 -35.97784 148.35930 36466 ft 422 kts 237°
2026-04-30 09:25 -36.01135 148.29959 36465 ft 423 kts 237°
2026-04-30 09:25 -36.04485 148.23987 36453 ft 422 kts 237°
2026-04-30 09:26 -36.07825 148.18017 36455 ft 422 kts 237°
2026-04-30 09:26 -36.11162 148.12036 36437 ft 423 kts 237°
2026-04-30 09:27 -36.14482 148.06085 36434 ft 423 kts 237°
2026-04-30 09:27 -36.17827 148.00104 36430 ft 423 kts 237°
2026-04-30 09:28 -36.21178 147.94112 36428 ft 423 kts 237°
2026-04-30 09:28 -36.24521 147.88105 36416 ft 424 kts 237°
2026-04-30 09:29 -36.27862 147.82087 36423 ft 424 kts 238°
2026-04-30 09:29 -36.31208 147.76057 36419 ft 425 kts 238°
2026-04-30 09:30 -36.34548 147.70018 36417 ft 425 kts 238°
2026-04-30 09:30 -36.37889 147.63965 36423 ft 425 kts 238°
2026-04-30 09:31 -36.41235 147.57894 36422 ft 426 kts 238°
2026-04-30 09:31 -36.44581 147.51816 36425 ft 426 kts 238°
2026-04-30 09:32 -36.47919 147.45730 36418 ft 426 kts 238°
2026-04-30 09:32 -36.51256 147.39632 36424 ft 426 kts 238°
2026-04-30 09:33 -36.54566 147.33564 36429 ft 426 kts 239°
2026-04-30 09:33 -36.57896 147.27464 36428 ft 426 kts 239°
2026-04-30 09:34 -36.61228 147.21364 36430 ft 426 kts 239°
2026-04-30 09:34 -36.64547 147.15258 36429 ft 426 kts 239°
2026-04-30 09:35 -36.67864 147.09134 36436 ft 426 kts 239°
2026-04-30 09:35 -36.71179 147.03016 36432 ft 426 kts 239°
2026-04-30 09:36 -36.74503 146.96885 36433 ft 426 kts 239°
2026-04-30 09:36 -36.77818 146.90755 36427 ft 427 kts 239°
2026-04-30 09:37 -36.81129 146.84598 35817 ft 430 kts 240°
2026-04-30 09:37 -36.82813 146.81450 34875 ft 439 kts 240°
2026-04-30 09:37 -36.84515 146.78277 34272 ft 439 kts 240°
2026-04-30 09:38 -36.86209 146.75127 33787 ft 435 kts 240°
2026-04-30 09:38 -36.87887 146.72004 33290 ft 431 kts 240°
2026-04-30 09:38 -36.89546 146.68909 32814 ft 427 kts 240°
2026-04-30 09:38 -36.91192 146.65839 32349 ft 423 kts 240°
2026-04-30 09:39 -36.92803 146.62835 31890 ft 419 kts 240°
2026-04-30 09:39 -36.94419 146.59819 31437 ft 416 kts 240°
2026-04-30 09:39 -36.96020 146.56831 31008 ft 412 kts 240°
2026-04-30 09:39 -36.97606 146.53862 30576 ft 409 kts 240°
2026-04-30 09:40 -36.99178 146.50914 30095 ft 406 kts 240°
2026-04-30 09:40 -37.00733 146.47995 29700 ft 401 kts 240°
2026-04-30 09:40 -37.02272 146.45104 29292 ft 397 kts 240°
2026-04-30 09:40 -37.03798 146.42234 28904 ft 394 kts 240°
2026-04-30 09:41 -37.05306 146.39392 28509 ft 391 kts 240°
2026-04-30 09:41 -37.06808 146.36565 28126 ft 389 kts 241°
2026-04-30 09:41 -37.08300 146.33755 27719 ft 387 kts 241°
2026-04-30 09:41 -37.09786 146.30951 27319 ft 385 kts 241°
2026-04-30 09:42 -37.11265 146.28157 26906 ft 384 kts 241°
2026-04-30 09:42 -37.12735 146.25377 26501 ft 383 kts 241°
2026-04-30 09:42 -37.14202 146.22600 26081 ft 382 kts 241°
2026-04-30 09:42 -37.15666 146.19829 25645 ft 381 kts 241°
2026-04-30 09:43 -37.17127 146.17058 25221 ft 380 kts 241°
2026-04-30 09:43 -37.18581 146.14295 24786 ft 380 kts 241°
2026-04-30 09:43 -37.20038 146.11532 24340 ft 380 kts 241°
2026-04-30 09:43 -37.21493 146.08770 23875 ft 380 kts 241°
2026-04-30 09:44 -37.22944 146.06012 23427 ft 377 kts 241°
2026-04-30 09:44 -37.24381 146.03276 22958 ft 374 kts 241°
2026-04-30 09:44 -37.25808 146.00559 22523 ft 371 kts 241°
2026-04-30 09:44 -37.27225 145.97864 22078 ft 368 kts 241°
2026-04-30 09:45 -37.28627 145.95197 21648 ft 364 kts 241°
2026-04-30 09:45 -37.30016 145.92551 21223 ft 361 kts 241°
2026-04-30 09:45 -37.31388 145.89932 20804 ft 358 kts 241°
2026-04-30 09:45 -37.32756 145.87324 20369 ft 356 kts 241°
2026-04-30 09:46 -37.34115 145.84734 19939 ft 354 kts 241°
2026-04-30 09:46 -37.35464 145.82163 19533 ft 351 kts 241°
2026-04-30 09:46 -37.36806 145.79602 19121 ft 350 kts 241°
2026-04-30 09:46 -37.38143 145.77051 18708 ft 349 kts 241°
2026-04-30 09:47 -37.39457 145.74543 18259 ft 347 kts 241°
2026-04-30 09:47 -37.40778 145.72020 17852 ft 343 kts 241°
2026-04-30 09:47 -37.42082 145.69522 17448 ft 340 kts 241°
2026-04-30 09:47 -37.43375 145.67048 17038 ft 337 kts 241°
2026-04-30 09:48 -37.44656 145.64593 16646 ft 334 kts 241°
2026-04-30 09:48 -37.45948 145.62177 16255 ft 332 kts 239°
2026-04-30 09:48 -37.47288 145.59829 15870 ft 330 kts 237°
2026-04-30 09:48 -37.48653 145.57514 15477 ft 328 kts 237°
2026-04-30 09:49 -37.50017 145.55219 15096 ft 326 kts 237°
2026-04-30 09:49 -37.51367 145.52937 14718 ft 324 kts 237°
2026-04-30 09:49 -37.52706 145.50657 14338 ft 323 kts 237°
2026-04-30 09:49 -37.54032 145.48384 13934 ft 321 kts 237°
2026-04-30 09:50 -37.55348 145.46121 13551 ft 319 kts 237°
2026-04-30 09:50 -37.56649 145.43876 13163 ft 316 kts 238°
2026-04-30 09:50 -37.57822 145.41847 12821 ft 314 kts 237°
2026-04-30 09:50 -37.59106 145.39630 12451 ft 311 kts 237°
2026-04-30 09:51 -37.60377 145.37432 12086 ft 309 kts 237°
2026-04-30 09:51 -37.61640 145.35247 11715 ft 307 kts 237°
2026-04-30 09:51 -37.62890 145.33081 11353 ft 305 kts 237°
2026-04-30 09:51 -37.64130 145.30929 10891 ft 305 kts 237°
2026-04-30 09:52 -37.65393 145.28729 10327 ft 310 kts 237°
2026-04-30 09:52 -37.66651 145.26541 9948 ft 308 kts 237°
2026-04-30 09:52 -37.67846 145.24466 9753 ft 299 kts 238°
2026-04-30 09:52 -37.69049 145.22387 9349 ft 289 kts 237°
2026-04-30 09:53 -37.70207 145.20381 8809 ft 283 kts 238°
2026-04-30 09:53 -37.71363 145.18375 8167 ft 282 kts 238°
2026-04-30 09:53 -37.72510 145.16382 7583 ft 278 kts 238°
2026-04-30 09:53 -37.73641 145.14412 7046 ft 274 kts 238°
2026-04-30 09:54 -37.74728 145.12522 6784 ft 260 kts 238°
2026-04-30 09:54 -37.75770 145.10715 6621 ft 253 kts 238°
2026-04-30 09:54 -37.76810 145.08901 6491 ft 254 kts 239°
2026-04-30 09:54 -37.77849 145.07083 6150 ft 256 kts 239°
2026-04-30 09:55 -37.78897 145.05245 5653 ft 261 kts 239°
2026-04-30 09:55 -37.79956 145.03389 5393 ft 259 kts 239°
2026-04-30 09:55 -37.80972 145.01522 5109 ft 255 kts 246°
2026-04-30 09:55 -37.81614 144.99473 4802 ft 247 kts 262°
2026-04-30 09:56 -37.81979 144.97352 4439 ft 247 kts 263°
2026-04-30 09:56 -37.82350 144.95220 3840 ft 248 kts 263°
2026-04-30 09:56 -37.82694 144.93134 3567 ft 234 kts 265°
2026-04-30 09:56 -37.82955 144.91186 3423 ft 216 kts 267°
2026-04-30 09:57 -37.83171 144.89382 3308 ft 198 kts 271°
2026-04-30 09:57 -37.82971 144.87799 3259 ft 170 kts 304°
2026-04-30 09:57 -37.82203 144.86798 3112 ft 155 kts 336°
2026-04-30 09:57 -37.81200 144.86474 3034 ft 144 kts 352°
2026-04-30 09:58 -37.80245 144.86299 3002 ft 139 kts 351°
2026-04-30 09:58 -37.79293 144.86117 3005 ft 137 kts 352°
2026-04-30 09:58 -37.78320 144.85931 2678 ft 149 kts 352°
2026-04-30 09:58 -37.77243 144.85728 2030 ft 164 kts 353°
2026-04-30 09:59 -37.75137 144.85329 1613 ft 141 kts 353°
2026-04-30 09:59 -37.73215 144.84962 1315 ft 144 kts 352°
2026-04-30 10:00 -37.71222 144.84594 996 ft 145 kts 352°
2026-04-30 10:00 -37.70243 144.84400 798 ft 140 kts 351°
2026-04-30 10:01 -37.68401 144.84067 358 ft 129 kts 352°
2026-04-30 10:01 -37.67651 144.83933 360 ft 85 kts 352°
2026-04-30 10:01 -37.67238 144.83860 387 ft 35 kts 352°
2026-04-30 10:02 -37.66918 144.83878 399 ft 25 kts 20°
2026-04-30 10:02 -37.66814 144.83925 403 ft 1 kts 20°
2026-04-30 10:02 -37.66802 144.83931 403 ft 3 kts 20°
2026-04-30 10:02 -37.66792 144.83936 403 ft 0 kts 20°
2026-04-30 10:03 -37.66786 144.83939 403 ft 6 kts 21°
2026-04-30 10:04 -37.66727 144.84019 403 ft 16 kts 69°
2026-04-30 10:04 -37.66749 144.84161 401 ft 17 kts 128°
2026-04-30 10:04 -37.66857 144.84207 398 ft 16 kts 170°
2026-04-30 10:04 -37.66985 144.84235 393 ft 22 kts 169°
2026-04-30 10:05 -37.67122 144.84252 389 ft 20 kts 175°
2026-04-30 10:05 -37.67281 144.84286 381 ft 27 kts 168°
2026-04-30 10:05 -37.67462 144.84321 370 ft 25 kts 172°
2026-04-30 10:05 -37.67575 144.84340 368 ft 26 kts 172°
2026-04-30 10:06 -37.67787 144.84377 355 ft 15 kts 172°
2026-04-30 10:06 -37.67837 144.84424 356 ft 10 kts 98°
2026-04-30 10:06 -37.67828 144.84498 357 ft 11 kts 83°
2026-04-30 10:06 -37.67808 144.84583 366 ft 10 kts 38°
2026-04-30 10:07 -37.67729 144.84594 368 ft 12 kts 22°
2026-04-30 10:07 -37.67671 144.84681 368 ft 14 kts 81°
2026-04-30 10:07 -37.67671 144.84797 373 ft 11 kts 66°
2026-04-30 10:07 -37.67634 144.84801 376 ft 8 kts 350°
2026-04-30 10:08 -37.67626 144.84800 376 ft 0 kts 352°